DW1274 Weather Reports


Display with metric or nautical units.
time (UTC)temp
F
wind
direction
speed
MPH
gust
MPH
rain 1hr
in
rain 24hr
in
rain mn
in
humidity
%
barometer
mb
20190220231207 77 295 0.0 0.0 0.00 0.02 0.01 89 1017.6
20190220230707 77 295 0.0 0.0 0.00 0.02 0.01 89 1017.5
20190220230208 77 295 0.0 0.0 0.00 0.02 0.01 89 1017.4
20190220225707 78 295 0.0 0.0 0.00 0.02 0.01 88 1017.4
20190220225207 78 295 0.0 0.0 0.00 0.02 0.01 87 1017.4
20190220224707 79 294 0.0 0.0 0.00 0.02 0.01 86 1017.4
20190220224208 79 294 0.0 0.0 0.00 0.02 0.01 85 1017.4
20190220223707 79 294 0.0 0.0 0.00 0.02 0.01 84 1017.2
20190220223206 79 284 0.0 0.0 0.00 0.02 0.01 83 1017.3
20190220222707 80 284 0.0 0.0 0.00 0.02 0.01 83 1017.1
20190220222206 80 284 0.0 0.0 0.00 0.02 0.01 83 1017.1
20190220221707 80 284 0.0 0.0 0.00 0.02 0.01 82 1017.0
20190220221206 80 283 0.0 0.0 0.00 0.02 0.01 82 1017.0
20190220220707 80 282 0.0 0.0 0.00 0.02 0.01 82 1017.1
20190220220207 80 280 0.0 0.0 0.00 0.02 0.01 82 1017.0
20190220215707 80 278 0.0 0.0 0.00 0.02 0.01 81 1017.0
20190220215206 80 263 0.0 0.0 0.00 0.02 0.01 81 1017.0
20190220214706 80 261 0.0 0.0 0.00 0.02 0.01 81 1017.1
20190220214207 80 261 0.0 0.0 0.00 0.02 0.01 81 1016.9
20190220213706 81 261 0.0 0.0 0.00 0.02 0.01 80 1016.8
20190220213206 81 252 0.0 0.0 0.00 0.02 0.01 80 1016.9
20190220212706 82 233 0.0 0.0 0.00 0.02 0.01 79 1016.8
20190220212208 83 195 0.0 0.0 0.00 0.02 0.01 78 1016.8
20190220211707 83 136 0.0 0.0 0.00 0.02 0.01 78 1016.8
20190220211207 83 135 0.0 0.0 0.00 0.02 0.01 79 1016.7
20190220210706 83 136 0.0 0.0 0.00 0.02 0.01 79 1016.7
20190220210207 82 136 0.0 0.0 0.00 0.02 0.01 80 1016.7
20190220205707 81 136 0.0 0.0 0.00 0.03 0.01 81 1016.6
20190220205206 81 136 0.0 0.0 0.00 0.03 0.01 82 1016.5
20190220204707 81 135 0.0 0.0 0.00 0.03 0.01 81 1016.5
20190220204207 81 136 0.0 0.0 0.00 0.03 0.01 82 1016.5
20190220203707 81 136 0.0 0.0 0.00 0.03 0.01 81 1016.5
20190220203206 81 135 0.0 0.0 0.00 0.03 0.01 82 1016.5
20190220202706 81 136 0.0 0.0 0.00 0.03 0.01 81 1016.5
20190220202207 81 136 0.0 0.0 0.00 0.03 0.01 81 1016.5
20190220201707 81 136 0.0 6.0 0.00 0.03 0.01 82 1016.4
20190220201206 81 136 1.0 9.0 0.00 0.03 0.01 81 1016.5
20190220200708 81 136 2.0 9.0 0.00 0.03 0.01 80 1016.6
20190220200207 81 133 2.0 9.0 0.00 0.03 0.01 79 1016.6
20190220195706 81 132 1.0 7.0 0.00 0.03 0.01 79 1016.7
20190220195207 82 128 0.0 1.0 0.00 0.03 0.01 78 1016.5
20190220194705 81 133 0.0 11.0 0.00 0.03 0.01 81 1016.6
20190220194207 80 133 2.0 11.0 0.00 0.03 0.01 82 1016.7
20190220193706 80 133 4.0 11.0 0.00 0.03 0.01 81 1016.8
20190220193207 80 132 3.0 9.0 0.00 0.04 0.01 79 1016.7
20190220192707 81 121 2.0 11.0 0.00 0.04 0.01 79 1016.8
20190220192207 81 135 3.0 12.0 0.00 0.04 0.01 79 1016.8
20190220191707 81 130 5.0 12.0 0.00 0.04 0.01 79 1016.9
20190220191207 81 121 5.0 12.0 0.00 0.04 0.01 79 1016.9
20190220190706 81 141 3.0 10.0 0.00 0.04 0.01 78 1017.0
20190220190207 81 138 3.0 10.0 0.00 0.04 0.01 78 1017.0
20190220185705 81 128 2.0 10.0 0.00 0.04 0.01 78 1017.0
20190220185206 81 138 1.0 6.0 0.00 0.04 0.01 79 1017.2
20190220184706 81 138 1.0 6.0 0.00 0.04 0.01 80 1017.3
20190220184208 81 136 1.0 10.0 0.00 0.04 0.01 80 1017.4
20190220183707 80 134 1.0 10.0 0.00 0.04 0.01 79 1017.4
20190220183206 80 138 2.0 10.0 0.00 0.04 0.01 80 1017.5
20190220182706 80 138 4.0 10.0 0.00 0.04 0.01 82 1017.7
20190220182207 79 139 3.0 10.0 0.00 0.04 0.01 81 1017.9
20190220181706 80 137 0.0 0.0 0.00 0.04 0.01 82 1018.1
20190220181206 79 153 0.0 1.0 0.00 0.04 0.01 83 1018.2
20190220180706 79 150 0.0 3.0 0.00 0.04 0.01 83 1018.5
20190220180207 79 149 0.0 9.0 0.00 0.04 0.01 83 1018.5
20190220175706 79 149 2.0 9.0 0.00 0.04 0.01 84 1018.5
20190220175206 78 148 3.0 9.0 0.00 0.04 0.01 85 1018.7
20190220174706 78 132 2.0 6.0 0.00 0.04 0.01 84 1018.7
20190220174207 77 152 1.0 5.0 0.00 0.04 0.01 86 1018.8
20190220173707 77 161 1.0 6.0 0.00 0.04 0.01 86 1019.0
20190220173206 77 166 1.0 9.0 0.00 0.04 0.01 87 1019.1
20190220172707 77 146 2.0 9.0 0.00 0.04 0.01 88 1019.2
20190220172209 76 132 2.0 9.0 0.00 0.04 0.01 89 1019.2
20190220171708 75 121 1.0 6.0 0.00 0.04 0.01 89 1019.3
20190220171208 74 130 2.0 6.0 0.00 0.04 0.01 91 1019.3
20190220170706 74 130 1.0 6.0 0.00 0.04 0.01 90 1019.5
20190220170207 73 138 1.0 6.0 0.00 0.04 0.01 92 1019.5
20190220165706 73 138 2.0 6.0 0.00 0.04 0.01 93 1019.6
20190220165207 72 132 3.0 6.0 0.00 0.04 0.01 93 1019.7
20190220164706 72 129 3.0 5.0 0.00 0.04 0.01 93 1019.8
20190220164207 72 146 1.0 4.0 0.00 0.04 0.01 93 1019.9
20190220163706 72 123 0.0 3.0 0.00 0.04 0.01 94 1019.9
20190220163206 71 120 0.0 3.0 0.00 0.04 0.01 94 1019.9
20190220162706 71 119 0.0 5.0 0.00 0.04 0.01 95 1020.1
20190220162207 70 119 1.0 5.0 0.00 0.04 0.01 95 1020.1
20190220161707 70 119 2.0 5.0 0.00 0.04 0.01 95 1020.1
20190220161207 70 121 2.0 5.0 0.00 0.04 0.01 96 1019.9
20190220160707 69 114 2.0 5.0 0.00 0.04 0.01 96 1020.0
20190220160207 69 105 2.0 5.0 0.00 0.04 0.01 97 1020.1
20190220155706 68 93 1.0 5.0 0.00 0.04 0.01 97 1020.2
20190220155207 68 78 1.0 4.0 0.00 0.04 0.01 98 1020.3
20190220154707 67 58 1.0 3.0 0.00 0.04 0.01 98 1020.3
20190220154208 67 45 0.0 0.0 0.00 0.04 0.01 99 1020.4
20190220153706 67 9 0.0 0.0 0.00 0.04 0.01 99 1020.3
20190220153205 66 9 0.0 0.0 0.00 0.04 0.01 99 1020.4
20190220152707 66 9 0.0 0.0 0.00 0.04 0.01 99 1020.4
20190220152207 66 9 0.0 0.0 0.00 0.04 0.01 99 1020.4
20190220151704 65 9 0.0 0.0 0.00 0.04 0.01 99 1020.4
20190220151207 65 9 0.0 0.0 0.00 0.04 0.01 99 1020.5
20190220150707 65 9 0.0 0.0 0.00 0.04 0.01 99 1020.5
20190220150207 64 9 0.0 0.0 0.00 0.04 0.01 99 1020.5
20190220145707 64 9 0.0 0.0 0.00 0.04 0.01 99 1020.5
20190220145206 64 9 0.0 0.0 0.00 0.04 0.01 99 1020.5
20190220144706 64 9 0.0 0.0 0.00 0.04 0.01 99 1020.6
20190220144207 64 9 0.0 0.0 0.00 0.04 0.01 99 1020.6
20190220143706 63 9 0.0 0.0 0.00 0.04 0.01 99 1020.7
20190220143206 63 9 0.0 0.0 0.00 0.04 0.01 100 1020.7
20190220142707 63 9 0.0 0.0 0.00 0.04 0.01 99 1020.7
20190220142207 62 9 0.0 0.0 0.00 0.04 0.01 99 1020.7
20190220141706 62 9 0.0 0.0 0.00 0.04 0.01 99 1020.8
20190220141207 62 9 0.0 0.0 0.00 0.04 0.01 99 1020.8
20190220140707 62 9 0.0 0.0 0.00 0.04 0.01 99 1020.8
20190220140207 62 9 0.0 0.0 0.00 0.04 0.01 99 1020.8
20190220135706 62 9 0.0 0.0 0.00 0.04 0.01 99 1020.8
20190220135206 61 9 0.0 0.0 0.00 0.04 0.01 99 1020.9
20190220134707 61 9 0.0 0.0 0.00 0.04 0.01 99 1020.9
20190220134207 61 9 0.0 0.0 0.00 0.04 0.01 99 1020.9
20190220133706 61 9 0.0 0.0 0.00 0.04 0.01 99 1020.9
20190220133206 61 9 0.0 0.0 0.00 0.04 0.01 99 1020.9
20190220132707 61 9 0.0 0.0 0.00 0.04 0.01 99 1020.8
20190220132208 61 9 0.0 0.0 0.00 0.04 0.01 99 1020.5
20190220131707 60 9 0.0 0.0 0.00 0.04 0.01 99 1020.6
20190220131209 60 9 0.0 0.0 0.00 0.04 0.01 99 1020.5
20190220130707 60 9 0.0 0.0 0.00 0.04 0.01 99 1020.5
20190220130210 60 9 0.0 0.0 0.00 0.04 0.01 99 1020.5
20190220125708 60 9 0.0 0.0 0.00 0.04 0.01 99 1020.3
20190220125209 60 9 0.0 0.0 0.00 0.04 0.01 99 1020.3
20190220124707 60 9 0.0 0.0 0.00 0.04 0.01 99 1020.2
20190220124209 60 9 0.0 0.0 0.00 0.04 0.01 99 1020.2
20190220123707 60 9 0.0 0.0 0.00 0.04 0.01 99 1020.2
20190220123208 60 9 0.0 0.0 0.00 0.04 0.01 99 1020.1
20190220122708 60 9 0.0 0.0 0.00 0.04 0.01 99 1020.2
20190220122209 59 9 0.0 0.0 0.00 0.04 0.01 99 1020.2
20190220121708 59 9 0.0 0.0 0.00 0.04 0.01 99 1020.1
20190220121208 59 9 0.0 0.0 0.00 0.04 0.01 99 1020.0
20190220120708 59 9 0.0 0.0 0.00 0.04 0.01 99 1020.0
20190220120209 59 9 0.0 0.0 0.00 0.04 0.01 99 1019.9
20190220115708 59 9 0.0 0.0 0.01 0.04 0.01 99 1019.9
20190220115208 59 9 0.0 0.0 0.01 0.04 0.01 99 1019.8
20190220114708 59 9 0.0 0.0 0.01 0.04 0.01 99 1019.8
20190220114209 59 9 0.0 0.0 0.01 0.04 0.01 99 1019.6
20190220113707 59 9 0.0 0.0 0.01 0.04 0.01 99 1019.7
20190220113210 59 9 0.0 0.0 0.01 0.04 0.01 99 1019.6
20190220112709 59 9 0.0 0.0 0.01 0.04 0.01 98 1019.6
20190220112209 59 9 0.0 0.0 0.01 0.04 0.01 98 1019.6
20190220111709 59 9 0.0 0.0 0.01 0.04 0.01 98 1019.6
20190220111208 59 9 0.0 0.0 0.01 0.04 0.01 98 1019.5
20190220110707 59 9 0.0 0.0 0.01 0.04 0.01 98 1019.5
20190220110209 59 9 0.0 0.0 0.00 0.03 0.00 98 1019.5
20190220105707 59 9 0.0 0.0 0.00 0.03 0.00 98 1019.6
20190220105208 59 9 0.0 0.0 0.00 0.03 0.00 98 1019.7
20190220104708 59 9 0.0 0.0 0.00 0.03 0.00 98 1019.7
20190220104209 59 9 0.0 0.0 0.00 0.03 0.00 98 1019.6
20190220103708 59 9 0.0 0.0 0.00 0.03 0.00 98 1019.6
20190220103209 59 9 0.0 0.0 0.00 0.03 0.00 98 1019.7
20190220102708 59 9 0.0 0.0 0.00 0.03 0.00 98 1019.6
20190220102208 59 9 0.0 0.0 0.00 0.03 0.00 98 1019.6
20190220101708 59 9 0.0 0.0 0.00 0.03 0.00 98 1019.5
20190220101209 59 9 0.0 0.0 0.00 0.03 0.00 98 1019.6
20190220100708 59 9 0.0 0.0 0.00 0.03 0.00 98 1019.6
20190220100209 59 9 0.0 0.0 0.00 0.03 0.00 98 1019.6
20190220095707 59 9 0.0 0.0 0.00 0.03 0.00 98 1019.6
20190220095208 59 9 0.0 0.0 0.00 0.03 0.00 98 1019.6
20190220094708 59 9 0.0 0.0 0.00 0.03 0.00 98 1019.7
20190220094207 59 9 0.0 0.0 0.00 0.03 0.00 98 1019.7
20190220093707 59 9 0.0 0.0 0.00 0.03 0.00 98 1019.8
20190220093206 59 9 0.0 0.0 0.00 0.03 0.00 98 1020.0
20190220092708 59 9 0.0 0.0 0.00 0.03 0.00 98 1020.0
20190220092207 59 9 0.0 0.0 0.00 0.03 0.00 98 1020.0
20190220091707 59 9 0.0 0.0 0.00 0.03 0.00 98 1020.0
20190220091206 59 9 0.0 0.0 0.00 0.03 0.00 98 1020.1
20190220090707 59 9 0.0 0.0 0.00 0.03 0.00 98 1020.1
20190220085706 58 9 0.0 0.0 0.00 0.03 0.00 98 1020.1
20190220085207 58 9 0.0 0.0 0.00 0.03 0.00 98 1020.3
20190220084707 58 9 0.0 0.0 0.00 0.03 0.00 98 1020.4
20190220084208 58 9 0.0 0.0 0.00 0.03 0.00 98 1020.4
20190220083706 58 9 0.0 0.0 0.00 0.03 0.00 98 1020.5
20190220083207 58 9 0.0 4.0 0.00 0.03 0.00 98 1020.4
20190220082707 58 9 0.0 4.0 0.00 0.03 0.00 98 1020.5
20190220082207 58 9 1.0 6.0 0.00 0.03 0.00 98 1020.5
20190220081705 58 9 1.0 6.0 0.00 0.03 0.00 98 1020.5
20190220081207 58 9 1.0 4.0 0.00 0.03 0.00 98 1020.6
20190220080708 58 0 0.0 3.0 0.00 0.03 0.00 98 1020.6
20190220080207 58 11 0.0 3.0 0.00 0.03 0.00 98 1020.7
20190220075707 58 11 0.0 3.0 0.00 0.03 0.00 98 1020.7
20190220075206 58 11 0.0 4.0 0.00 0.03 0.00 98 1020.7
20190220074707 58 11 1.0 4.0 0.00 0.03 0.00 98 1020.7
20190220074207 58 11 1.0 5.0 0.00 0.03 0.00 98 1020.7
20190220073707 58 11 1.0 5.0 0.00 0.03 0.00 98 1020.7
20190220073207 58 26 1.0 5.0 0.00 0.03 0.00 98 1020.8
20190220072707 58 24 2.0 4.0 0.00 0.03 0.00 98 1021.0
20190220072207 58 15 1.0 4.0 0.00 0.03 0.00 98 1021.1
20190220071706 58 16 1.0 4.0 0.00 0.03 0.00 98 1021.2
20190220071206 58 16 1.0 5.0 0.00 0.03 0.00 98 1021.2
20190220070707 58 19 2.0 7.0 0.00 0.03 0.00 98 1021.4
20190220070207 58 18 2.0 7.0 0.00 0.03 0.00 98 1021.4
20190220065708 58 22 2.0 7.0 0.00 0.03 0.00 98 1021.5
20190220065206 58 21 2.0 4.0 0.00 0.03 0.00 98 1021.5
20190220064706 58 16 0.0 4.0 0.00 0.03 0.00 98 1021.6
20190220064208 58 9 0.0 4.0 0.00 0.03 0.00 98 1021.7
20190220063706 58 5 1.0 6.0 0.00 0.03 0.00 98 1021.7
20190220063206 58 5 2.0 6.0 0.00 0.03 0.00 98 1021.8
20190220062707 58 355 1.0 10.0 0.00 0.03 0.00 98 1021.9
20190220062207 58 21 1.0 10.0 0.00 0.03 0.00 98 1021.9
20190220061725 58 20 2.0 10.0 0.00 0.03 0.00 98 1022.1
20190220061206 58 9 2.0 7.0 0.00 0.03 0.00 98 1021.9
20190220060707 58 26 2.0 7.0 0.00 0.03 0.00 98 1022.0
20190220060207 58 22 2.0 9.0 0.00 0.03 0.00 98 1022.1
20190220055707 58 24 2.0 9.0 0.00 0.03 0.00 98 1022.2
20190220055206 58 21 2.0 9.0 0.00 0.03 0.00 98 1022.2
20190220054707 58 19 1.0 5.0 0.00 0.03 0.00 98 1022.1
20190220054234 58 46 2.0 6.0 0.00 0.03 0.00 98 1022.2
20190220053706 58 45 2.0 12.0 0.00 0.03 0.00 98 1022.3
20190220053206 58 50 2.0 13.0 0.00 0.03 0.00 98 1022.3
20190220052707 58 43 3.0 13.0 0.00 0.03 0.00 98 1022.3
20190220052208 58 40 3.0 13.0 0.00 0.03 0.00 98 1022.3
20190220051708 58 41 3.0 10.0 0.00 0.03 0.00 98 1022.3
20190220051205 58 42 3.0 10.0 0.00 0.03 0.00 98 1022.5
20190220050707 58 27 3.0 10.0 0.00 0.03 0.00 98 1022.5
20190220050208 58 13 3.0 10.0 0.00 0.03 0.03 98 1022.6
20190220045706 58 42 3.0 14.0 0.00 0.03 0.03 98 1022.7
20190220045207 58 50 3.0 14.0 0.00 0.03 0.03 98 1022.6
20190220044707 58 47 4.0 14.0 0.00 0.03 0.03 98 1022.7
20190220044207 58 51 3.0 18.0 0.00 0.03 0.03 98 1022.6
20190220043707 58 22 4.0 18.0 0.00 0.03 0.03 98 1022.8
20190220043207 58 40 4.0 18.0 0.00 0.03 0.03 98 1022.8
20190220042706 58 22 3.0 11.0 0.01 0.03 0.03 98 1022.9
20190220042207 58 18 2.0 13.0 0.01 0.03 0.03 98 1022.9
20190220041707 59 40 3.0 13.0 0.01 0.03 0.03 98 1022.9
20190220041207 59 15 4.0 13.0 0.01 0.03 0.03 98 1023.0
20190220040707 59 40 4.0 13.0 0.01 0.03 0.03 98 1022.9
20190220040207 59 0 4.0 13.0 0.01 0.03 0.03 98 1023.0
20190220035706 59 24 4.0 12.0 0.01 0.03 0.03 98 1023.0
20190220035206 59 13 3.0 12.0 0.01 0.03 0.03 98 1022.9
20190220034707 59 26 4.0 12.0 0.01 0.03 0.03 98 1022.9
20190220034207 59 16 4.0 10.0 0.01 0.03 0.03 98 1023.0
20190220033707 59 11 3.0 12.0 0.01 0.03 0.03 98 1023.1
20190220033207 59 24 4.0 12.0 0.01 0.03 0.03 98 1023.3
20190220032707 59 37 3.0 11.0 0.00 0.02 0.02 98 1023.3
20190220032207 59 11 3.0 10.0 0.00 0.02 0.02 98 1023.2
20190220031706 59 9 3.0 10.0 0.00 0.02 0.02 98 1023.3
20190220031207 59 32 4.0 10.0 0.00 0.02 0.02 98 1023.3
20190220030706 59 36 2.0 11.0 0.00 0.02 0.02 98 1023.3
20190220030207 59 26 3.0 14.0 0.00 0.02 0.02 98 1023.3
20190220025707 59 18 5.0 14.0 0.00 0.02 0.02 98 1023.3
20190220025207 59 27 5.0 14.0 0.00 0.02 0.02 98 1023.3
20190220024707 59 46 4.0 11.0 0.00 0.02 0.02 98 1023.3
20190220024212 59 46 4.0 11.0 0.00 0.02 0.02 98 1023.2
20190220023706 59 24 3.0 12.0 0.00 0.02 0.02 98 1023.3
20190220023207 59 5 3.0 13.0 0.00 0.02 0.02 97 1023.4
20190220022706 59 26 4.0 13.0 0.00 0.02 0.02 97 1023.4
20190220022207 59 35 4.0 13.0 0.00 0.02 0.02 97 1023.3
20190220021706 59 18 4.0 12.0 0.00 0.02 0.02 98 1023.2
20190220021206 59 12 3.0 13.0 0.00 0.02 0.02 98 1023.1
20190220020706 59 18 3.0 14.0 0.00 0.02 0.02 98 1022.8
20190220020207 59 26 5.0 14.0 0.00 0.02 0.02 97 1023.2
20190220015705 59 346 5.0 14.0 0.00 0.02 0.02 97 1023.1
20190220015206 59 24 4.0 14.0 0.00 0.02 0.02 97 1023.2
20190220014707 59 20 4.0 12.0 0.00 0.02 0.02 97 1023.1
20190220014207 59 27 4.0 11.0 0.00 0.02 0.02 97 1023.0
20190220013706 59 52 4.0 11.0 0.00 0.02 0.02 97 1023.0
20190220013207 59 15 3.0 11.0 0.00 0.02 0.02 97 1023.2
20190220012706 59 19 3.0 11.0 0.00 0.02 0.02 97 1023.0
20190220012207 59 40 3.0 12.0 0.00 0.02 0.02 97 1022.9
20190220011707 59 18 2.0 12.0 0.00 0.02 0.02 97 1022.8
20190220011207 59 26 3.0 12.0 0.00 0.02 0.02 97 1022.8
20190220010707 59 22 3.0 9.0 0.00 0.02 0.02 97 1022.8
20190220010208 59 28 3.0 13.0 0.00 0.02 0.02 97 1022.8
20190220005707 59 10 4.0 13.0 0.00 0.02 0.02 97 1022.7
20190220005207 59 5 4.0 13.0 0.00 0.02 0.02 97 1022.7
20190220004706 59 23 3.0 13.0 0.00 0.02 0.02 97 1022.7
20190220004207 59 25 4.0 11.0 0.00 0.02 0.02 97 1022.7
20190220003705 59 36 4.0 11.0 0.00 0.02 0.02 97 1022.7
20190220003207 59 44 4.0 11.0 0.00 0.02 0.02 97 1022.5
20190220002707 59 30 4.0 11.0 0.00 0.02 0.02 97 1022.5
20190220002207 59 35 4.0 12.0 0.00 0.02 0.02 97 1022.2
20190220001707 59 24 3.0 12.0 0.00 0.02 0.02 97 1022.3
20190220001206 59 22 3.0 12.0 0.00 0.02 0.02 97 1022.4
20190220000707 59 17 3.0 12.0 0.00 0.02 0.02 97 1022.5
20190220000207 59 30 3.0 13.0 0.00 0.02 0.02 97 1022.4
20190219235707 59 36 3.0 13.0 0.00 0.02 0.02 97 1022.4
20190219235206 59 36 4.0 12.0 0.00 0.02 0.02 97 1022.5
20190219234707 59 11 3.0 12.0 0.00 0.02 0.02 97 1022.4
20190219234207 59 9 3.0 10.0 0.00 0.02 0.02 97 1022.3
20190219233707 59 27 3.0 11.0 0.00 0.02 0.02 97 1022.3
20190219233207 59 24 4.0 11.0 0.00 0.02 0.02 96 1022.3
20190219232706 59 14 3.0 11.0 0.00 0.02 0.02 96 1022.3
20190219232209 59 13 3.0 10.0 0.00 0.02 0.02 96 1022.4
20190219231708 59 5 3.0 10.0 0.00 0.02 0.02 96 1022.4